Satellite: PHARMSAT
Catalog number: 35002
Epoch time:      09316.45141526
Element set:     136
Inclination:      040.4680 deg
RA of node:       072.6332 deg
Eccentricity:    0.0025797
Arg of perigee:   191.8307 deg
Mean anomaly:     168.2005 deg
Mean motion:   15.40254806 rev/day
Decay rate:      3.242e-05 rev/day^2
Epoch rev:            2720
Checksum:              258

Satellite: HAWKSAT1
Catalog number: 35003
Epoch time:      09315.66528578
Element set:     143
Inclination:      040.4604 deg
RA of node:       076.2060 deg
Eccentricity:    0.0025465
Arg of perigee:   190.6189 deg
Mean anomaly:     169.4091 deg
Mean motion:   15.41272475 rev/day
Decay rate:      6.308e-05 rev/day^2
Epoch rev:            2710
Checksum:              283

Satellite: CP6
Catalog number: 35004
Epoch time:      09316.37326279
Element set:     136
Inclination:      040.4608 deg
RA of node:       071.9023 deg
Eccentricity:    0.0024830
Arg of perigee:   195.8031 deg
Mean anomaly:     164.2031 deg
Mean motion:   15.41432580 rev/day
Decay rate:      7.491e-05 rev/day^2
Epoch rev:            2720
Checksum:              264

Satellite: AEROCUB3
Catalog number: 35005
Epoch time:      09316.72001073
Element set:     139
Inclination:      040.4727 deg
RA of node:       070.3296 deg
Eccentricity:    0.0025097
Arg of perigee:   195.3429 deg
Mean anomaly:     164.6625 deg
Mean motion:   15.41188833 rev/day
Decay rate:      6.898e-05 rev/day^2
Epoch rev:            2725
Checksum:              302

Satellite: DRAGNSAT
Catalog number: 35690
Epoch time:      09316.19745205
Element set:     103
Inclination:      051.6390 deg
RA of node:       259.6437 deg
Eccentricity:    0.0006193
Arg of perigee:   107.7606 deg
Mean anomaly:     252.4032 deg
Mean motion:   15.86613341 rev/day
Decay rate:     4.8992e-04 rev/day^2
Epoch rev:            1658
Checksum:              300

Satellite: POLLUX
Catalog number: 35693
Epoch time:      09315.86516791
Element set:     106
Inclination:      051.6393 deg
RA of node:       261.9400 deg
Eccentricity:    0.0005526
Arg of perigee:   074.5812 deg
Mean anomaly:     285.5876 deg
Mean motion:   15.85514762 rev/day
Decay rate:     4.2022e-04 rev/day^2
Epoch rev:            1649
Checksum:              310

Satellite: CASTOR
Catalog number: 35694
Epoch time:      09316.13087104
Element set:      98
Inclination:      051.6415 deg
RA of node:       261.4970 deg
Eccentricity:    0.0005567
Arg of perigee:   072.0828 deg
Mean anomaly:     288.0751 deg
Mean motion:   15.82782397 rev/day
Decay rate:     2.0172e-04 rev/day^2
Epoch rev:            1652
Checksum:              304

Satellite: METEOR-M
Catalog number: 35865
Epoch time:      09316.38940474
Element set:      52
Inclination:      098.7914 deg
RA of node:       006.3905 deg
Eccentricity:    0.0001449
Arg of perigee:   269.1993 deg
Mean anomaly:     090.8996 deg
Mean motion:   14.21827380 rev/day
Decay rate:       1.76e-06 rev/day^2
Epoch rev:             791
Checksum:              328

Satellite: STERKH-2
Catalog number: 35866
Epoch time:      09316.37100179
Element set:      57
Inclination:      098.7923 deg
RA of node:       006.4223 deg
Eccentricity:    0.0002391
Arg of perigee:   272.1129 deg
Mean anomaly:     087.9766 deg
Mean motion:   14.22300318 rev/day
Decay rate:       1.78e-06 rev/day^2
Epoch rev:             791
Checksum:              293

Satellite: FREGAT-I
Catalog number: 35867
Epoch time:      09316.45368876
Element set:      64
Inclination:      097.3660 deg
RA of node:       005.4709 deg
Eccentricity:    0.0011781
Arg of perigee:   092.5373 deg
Mean anomaly:     267.7116 deg
Mean motion:   15.22761220 rev/day
Decay rate:      2.269e-05 rev/day^2
Epoch rev:             848
Checksum:              314

/EX


More information about the Keps mailing list